METEOR 2-11 DEB, 40317

Orbit data source: Space-Track

METEOR 2-11 DEB, 40317 is space debris in LEO originally from a launch on Thu, 05 Jul 1984 UTC launched from the Plesetsk Missile And Space Complex (PKMTR). Debris objects in space refer to the collection of defunct objects orbiting the Earth. Examples of debris include non-operational satellites, rocket bodies, and fragments generated from explosions, collisions, or faulty payload assembly.

Loading next visibility...
Identifier
40317, 1984-072C
Orbit
LEO
Country
Flag of CISCIS
Related business
Manufacturer
Unknown
Mission
Spacecraft
Bus & Motor
Unknown
Mass
Unknown
Launch date (UTC)
1984-07-05 (42 years ago)
Launch vehicle
Unknown
Launch site
Plesetsk Missile And Space Complex (PKMTR)
Object type
Payload
Rocket body
Debris
Shape & HBR
Unknown shape, 0.1 m
Radar Cross Section
Small (<0.1 m²)

Expand to show TLE details & history
Last TLE update: 1 day ago

TLE from 1 day ago
0 METEOR 2-11 DEB
1 40317U 84072C   26061.38177460  .00002388  00000-0  16409-2 0  9990
2 40317  82.5143  93.2411 0011664  35.1481 325.0455 13.99045481571102
Epoch: 2026-03-02T09:09Z
TLE epoch observation values (Epoch: 2026-03-02T09:09:45.325Z)
Latitude
0.00002°
Longitude
155.62625°
Altitude
893.071 km
Speed
7.409 km/s
True Right ascension
06h 12m 57s
True Declination
0° 00' 00"
Sunlit
Object was in daylight at epoch
Visualization orbit readout
Latitude
Unknown
Longitude
Unknown
Altitude
Unknown
Speed
Unknown
Apparent Right ascension
Unknown
Apparent Declination
Unknown
Sunlit
N/A
Visualization observer readout
Local Sidereal Time
14:14:40
Azimuth
Unknown
Elevation
Unknown
Doppler factor
Unknown
Orbital elements
Apogee altitude
902.717 km
Perigee altitude
885.752 km
Semi-major axis
7,272.372 km
Eccentricity
0.00117
Inclination
82.5143°
RAAN
93.2411°
Arg. of periapsis
35.1481°
True anomaly
324.96883°
Mean anomaly
325.0455°
Eccentric anomaly
325.00717°
Mean motion
3.49969 °/min
Orbital period
102.87 mins
BSTAR
0.0016409
Loading maneuver chart data...
Computing Atmospheric mass density...
Loading historical data...
Loading historical data...
Loading historical data...
Loading historical data...
Loading historical data...
Loading historical data...
Loading historical data...

Documentation

Showing up to 5 results
|